TimeEST,TemperatureF,Dew PointF,Humidity,Sea Level PressureIn,VisibilityMPH,Wind Direction,Wind SpeedMPH,Gust SpeedMPH,PrecipitationIn,Events,Conditions,WindDirDegrees,DateUTC
12:55 AM,9.5,-1.1,62,29.95,10.0,SW,3.5,-,N/A,,Partly Cloudy,230,2013-01-04 05:55:00
1:55 AM,8.8,0.1,68,29.94,10.0,Calm,Calm,-,N/A,,Partly Cloudy,0,2013-01-04 06:55:00
2:55 AM,11.1,2.8,69,29.94,10.0,WSW,6.9,-,N/A,,Mostly Cloudy,240,2013-01-04 07:55:00
3:55 AM,13.8,5.4,69,29.92,10.0,West,6.9,-,N/A,,Partly Cloudy,260,2013-01-04 08:55:00
4:55 AM,13.6,6.3,72,29.91,10.0,WSW,5.8,-,N/A,,Clear,250,2013-01-04 09:55:00
5:55 AM,13.3,7.0,76,29.91,10.0,West,4.6,-,N/A,,Mostly Cloudy,270,2013-01-04 10:55:00
6:55 AM,12.7,8.1,82,29.93,10.0,West,5.8,-,N/A,,Mostly Cloudy,260,2013-01-04 11:55:00
7:55 AM,16.9,11.5,79,29.92,10.0,West,6.9,-,N/A,,Mostly Cloudy,260,2013-01-04 12:55:00
8:55 AM,21.9,15.3,76,29.91,10.0,SW,3.5,-,N/A,,Mostly Cloudy,220,2013-01-04 13:55:00
9:55 AM,27.1,18.3,69,29.90,10.0,SW,4.6,-,N/A,,Overcast,220,2013-01-04 14:55:00
10:55 AM,30.6,19.4,63,29.87,10.0,SW,11.5,-,N/A,,Overcast,220,2013-01-04 15:55:00
11:55 AM,32.4,19.0,58,29.82,10.0,SW,12.7,18.4,N/A,,Mostly Cloudy,220,2013-01-04 16:55:00
12:55 PM,33.3,19.0,56,29.78,10.0,SW,8.1,-,N/A,,Overcast,230,2013-01-04 17:55:00
1:55 PM,35.1,19.2,53,29.77,10.0,SW,10.4,19.6,N/A,,Overcast,220,2013-01-04 18:55:00
2:55 PM,36.1,18.9,50,29.77,10.0,WSW,9.2,-,N/A,,Overcast,240,2013-01-04 19:55:00
3:55 PM,35.2,19.4,53,29.78,10.0,West,8.1,-,N/A,,Mostly Cloudy,260,2013-01-04 20:55:00
4:55 PM,34.2,18.5,53,29.78,10.0,SW,9.2,-,N/A,,Mostly Cloudy,230,2013-01-04 21:55:00
5:55 PM,32.9,18.5,55,29.78,10.0,SSW,9.2,-,N/A,,Mostly Cloudy,210,2013-01-04 22:55:00
6:55 PM,32.2,18.5,57,29.79,10.0,SW,6.9,-,N/A,,Mostly Cloudy,220,2013-01-04 23:55:00
7:55 PM,33.3,19.2,56,29.79,10.0,SW,8.1,-,N/A,,Mostly Cloudy,220,2013-01-05 00:55:00
8:55 PM,33.8,19.2,55,29.79,10.0,SW,6.9,-,N/A,,Mostly Cloudy,220,2013-01-05 01:55:00
9:55 PM,34.0,19.6,56,29.79,10.0,SSW,11.5,-,N/A,,Mostly Cloudy,210,2013-01-05 02:55:00
10:55 PM,32.5,19.4,58,29.78,10.0,SW,5.8,-,N/A,,Mostly Cloudy,220,2013-01-05 03:55:00
11:55 PM,30.9,18.5,60,29.79,10.0,SW,5.8,-,N/A,,Mostly Cloudy,230,2013-01-05 04:55:00